Flag for Argentina Weather past 2 weeks in Ushuaia, Tierra del Fuego, Argentina

Now
46 °F

Drizzle. Partly sunny.


Feels Like: 38 °F
Forecast: 42 / 54 °F
Wind: 22 mph from West

Location: Ushuaia Aerodrome

Current Time: Oct 21, 2014 at 2:10:55 PM

Latest Report: Oct 21, 2014 at 1:00 PM


Visibility: N/A

Pressure: 29.33 "Hg

Humidity: 71%

Dew point: 37 °F

Location of UshuaiaLocation

Historic Weather in Ushuaia — Graph

°F

Ushuaia temperature yesterday

Maximum temperature yesterday: 55 °F (at 4:00 PM)
Minimum temperature yesterday: 45 °F (at 8:00 AM)
Average temperature yesterday: 50 °F

Past Weeks' High & Low Weather Summary

 TemperatureHumidityPressure
High59 °F (Oct 19, 4:00 PM)100% (Oct 11, 1:00 PM)29.89 "Hg (Oct 11, 1:00 PM)
Low28 °F (Oct 13, 1:00 AM)30% (Oct 6, 5:00 PM)28.74 "Hg (Oct 12, 2:00 PM)
Average41 °F73%29.46 "Hg
* Reported Oct 6 1:00 PM — Oct 21 1:00 PM, Ushuaia, Weather by CustomWeather, © 2014

Note: Actual official high and low records may vary slightly from our data, if they occured in-between our weather recording intervals... More about our weather records

Advertising

Ushuaia weather history for previous 24 hours

 ConditionsComfort  
Time TempWeatherWind HumidityBarometerVisibility
1:00 PM
Oct 21
46 °FDrizzle. Partly sunny.22 mph71%29.33 "HgN/A
12:00 PM46 °FPartly sunny.18 mph71%29.33 "HgN/A
11:00 AM46 °FDrizzle. Partly sunny.21 mph71%29.33 "HgN/A
10:00 AM46 °FBroken clouds.22 mph71%29.33 "HgN/A
9:00 AM46 °FPartly sunny.20 mph76%29.33 "HgN/A
8:00 AM46 °FScattered clouds.5 mph76%29.33 "HgN/A
7:00 AM46 °FScattered clouds.7 mph71%29.30 "HgN/A
6:00 AM45 °FPartly sunny.12 mph81%29.33 "HgN/A
5:00 AM46 °FPassing clouds.16 mph82%29.30 "HgN/A
4:00 AM46 °FPassing clouds.17 mph82%29.30 "HgN/A
2:00 AM46 °FPassing clouds.3 mph82%29.33 "HgN/A
1:00 AM46 °FPassing clouds.7 mph76%29.33 "HgN/A
12:00 AM45 °FPassing clouds.14 mph81%29.27 "HgN/A
11:00 PM
Oct 20
48 °FPartly cloudy.9 mph71%29.27 "HgN/A
10:00 PM48 °FPartly cloudy.21 mph71%29.27 "HgN/A
9:00 PM52 °FPartly cloudy.No wind62%29.27 "HgN/A
8:00 PM52 °FPartly cloudy.No wind62%29.27 "HgN/A
7:00 PM54 °FMore clouds than sun.12 mph58%29.27 "HgN/A
6:00 PM54 °FPartly sunny.6 mph58%29.27 "HgN/A
5:00 PM55 °FPartly sunny.7 mph55%29.27 "HgN/A
4:00 PM55 °FPartly sunny.6 mph55%29.30 "HgN/A
3:00 PM54 °FPartly sunny.6 mph63%29.30 "HgN/A
2:00 PM52 °FPartly sunny.5 mph67%29.33 "HgN/A
Weather by CustomWeather, © 2014

See weather overviewHow to use our weather pages